Location: Barrialito
(10.3588°N, 66.9747°W)
Time: 09:28:12
(UTC+00:00)

Cosmos 1862 Rocket - Pass Details

Date: 12 July 2022
Orbit: 603 x 633 km, 82.5° (Epoch: 13 August)

Event Time Altitude Azimuth Distance (km) Brightness Sun altitude
Rises 07:51:26 0° 0° (N) 2,850 7.4 -31.7°
Reaches altitude 10° 07:53:39 10° 3° (N) 1,950 6.5 -31.3°
Enters shadow 07:55:18 23° 8° (N) 1,310 5.5 -30.9°
